Starlink 33691

operational
NORAD ID: 63462 Int'l Des: 2025-070 Owner: SPXS Country: US Constellation: starlink
LEOCIRCULAR

关于 Starlink 33691

正在加载描述...

实时位置

正在加载3D地球...

即将过境

高度历史

Altitude vs Time

uPlot chart will show altitude changes over time

两行轨道根数

1 63462U 25070C 25308.10314088 .00028173 00000-0 10280-2 0 9992
2 63462 43.0008 248.7054 0001007 282.0089 78.0650 15.27626062 33723
Epoch: Nov 4, 2025 • Age: 13 hours

当前状态

高度 483.5 km
速度 7.63 km/s
星下点 26.54°N, 114.75°E
发射日期 Apr 6, 2025
运行时间 0.5 years
类型 internet

技术详情

分类 Payload
质量 575.00 kg
干质量 530.00 kg
总质量 575.00 kg
长度 0.30 m
直径 4.10 m
跨度 29.00 m
形状 Box + pan
制造商 SPXS
平台类型 Starlink V2MO
阶段状态 In Orbit
所有者/国家 SPXS/US

大型星座

Loading constellations...